Wind_Speed
14 11 6 5 5 5 5 6 5 5 5 5 5 5 5 7 9 10 11 12 13 14 16 17 19 21 23 25 28 30 32 34 36 38 40 42 44 45 47 49 52 53 55 56 58
13 6 3 3 3 4 4 5 5 6 7 7 8 8 9 10 11 11 12 14 16 18 19 22 24 27 30 32 35 37 39 40 42 44 46 48 51 54 55 57 59 60 62 63 65
5 3 1 1 2 2 3 3 5 7 8 9 10 11 11 11 12 13 14 17 19 22 24 26 27 26 25 24 25 27 29 30 31 32 34 36 39 44 47 49 51 55 57 60 62
4 3 1 1 2 3 2 4 6 8 10 9 9 9 10 12 15 17 20 23 24 25 24 24 26 27 28 30 33 32 33 39 36 37 40 44 47 49 51 52 53 57 60 63 66
2 0 2 1 3 3 3 6 8 10 9 9 9 12 15 17 21 22 20 20 21 22 21 22 28 32 33 37 39 36 40 44 44 43 44 45 47 50 52 54 56 58 62 66 70
2 3 2 3 4 3 3 6 8 8 9 11 14 16 19 19 17 16 21 20 25 35 36 41 43 45 48 49 50 51 49 48 48 49 47 50 53 54 55 57 63 65 67 69 73
4 3 1 3 4 1 3 6 7 8 10 14 17 18 15 16 24 31 33 37 42 42 46 46 49 53 55 57 58 53 50 53 58 61 61 59 59 62 63 64 65 71 77 81 83
4 2 2 4 3 1 2 5 7 10 14 18 20 17 20 29 33 35 36 39 45 46 48 49 53 55 56 59 55 55 61 63 64 62 60 60 59 63 65 68 72 75 80 84 88
4 3 3 4 3 2 2 5 9 12 17 20 20 25 29 31 32 36 39 41 42 47 49 52 54 51 54 52 54 56 56 53 49 51 53 58 63 65 68 70 75 77 79 84 90
5 4 5 5 3 3 3 6 10 15 18 22 21 24 29 31 34 37 38 41 44 48 51 53 49 51 53 55 54 53 55 55 61 63 66 63 61 61 64 67 71 73 81 84 87
7 6 8 6 4 4 3 6 12 15 18 20 22 27 28 29 35 39 39 44 44 49 53 53 47 50 53 55 54 55 59 63 66 67 68 65 66 70 71 75 75 87 92 93 99
8 7 9 8 5 5 3 6 12 14 16 16 22 27 30 31 33 40 41 44 44 50 53 52 50 53 56 59 58 62 64 68 69 70 73 78 74 74 77 82 82 89 93 99 103
10 10 12 10 7 7 4 6 10 13 13 14 19 28 33 33 36 40 44 43 46 54 53 52 53 56 56 58 63 62 66 70 76 75 77 83 77 82 90 88 91 96 103 109 114
12 13 15 13 9 9 6 7 10 11 13 16 17 22 28 33 39 41 42 42 50 53 53 53 57 55 56 56 60 59 64 72 74 79 82 88 91 86 91 94 100 105 119 124 119
13 15 16 15 12 10 9 7 9 12 14 17 21 25 29 34 36 41 41 46 50 52 50 54 58 58 57 56 56 60 66 71 75 82 89 92 92 93 99 104 109 112 122 121 121
15 16 19 17 16 12 13 12 9 13 15 18 22 26 31 32 39 39 40 49 52 52 55 56 59 57 56 55 58 62 72 78 80 85 91 92 93 97 106 109 112 122 126 124 119
17 18 21 20 19 16 14 15 12 14 17 18 23 25 31 35 37 36 43 48 48 51 55 58 58 54 58 60 61 67 72 75 82 87 90 94 97 101 108 112 123 132 128 130 114
20 19 21 24 21 19 17 16 15 16 19 21 24 28 31 35 35 38 43 46 50 52 56 58 57 58 61 59 65 70 73 84 91 93 94 97 103 105 118 120 133 138 129 118 99
22 21 23 25 23 21 21 18 17 19 22 24 26 30 33 37 37 37 42 45 48 54 58 58 61 62 63 66 71 76 82 86 89 98 103 101 107 113 121 125 133 128 120 104 90
24 23 24 26 25 23 21 20 20 22 23 26 25 31 35 37 36 38 43 49 52 56 58 63 67 67 69 71 73 78 87 94 100 103 105 105 115 117 123 123 125 128 110 91 82
26 25 25 27 27 24 22 21 22 24 25 28 30 33 35 38 40 40 45 50 53 54 59 67 68 70 74 71 77 83 92 96 98 101 106 109 120 122 129 124 127 121 101 88 78
27 26 25 27 28 25 24 24 24 26 28 30 32 34 37 42 42 46 47 49 53 55 61 69 66 71 74 75 76 84 91 96 99 105 109 113 121 123 132 126 123 108 94 85 79
29 27 26 27 28 26 26 25 28 28 31 32 33 35 40 44 44 44 46 50 54 58 64 68 67 74 80 78 80 87 95 102 103 106 113 115 123 124 127 124 117 99 91 80 71
30 28 27 28 29 29 28 28 29 30 32 31 33 37 42 44 46 46 47 50 55 60 62 67 69 77 84 81 85 92 98 101 110 110 116 117 124 126 126 121 107 92 84 73 62
30 29 29 29 29 29 30 30 29 30 33 34 34 38 46 45 46 48 50 54 57 62 63 66 72 77 83 85 91 93 101 106 110 111 119 119 125 130 130 124 98 86 78 65 57
33 31 30 30 30 33 33 32 33 32 34 37 36 37 46 51 50 51 51 54 56 59 62 69 75 78 84 87 92 97 105 111 110 112 118 121 128 131 127 120 95 87 73 59 54
33 32 31 30 32 33 33 32 32 32 36 38 37 37 46 53 54 54 55 57 59 59 62 71 76 79 83 87 93 99 105 110 117 120 119 122 125 126 127 112 90 79 66 56 51
Wind_Direction
315 314 306 314 331 340 351 355 359 6 17 19 24 16 3 354 353 349 340 336 331 325 323 320 318 317 316 315 312 309 307 304 301 298 297 297 296 294 292 289 287 285 283 282 281
305 284 278 331 330 344 7 11 14 20 22 22 19 13 9 4 357 352 347 340 332 327 325 324 323 320 317 315 314 314 313 310 306 302 299 296 294 292 291 289 287 285 283 282 280
263 203 189 317 351 18 38 33 26 27 29 25 19 15 7 2 357 344 338 332 330 327 324 322 322 325 331 334 329 327 328 326 319 313 311 307 304 303 302 302 300 298 296 293 289
156 146 189 348 43 75 40 44 37 34 31 22 17 12 2 357 349 343 337 333 330 330 330 329 329 332 337 346 345 338 336 335 334 327 321 318 313 308 303 298 298 297 294 291 289
91 255 27 33 102 77 28 37 40 32 30 27 19 8 1 351 343 341 346 353 358 356 356 3 5 2 358 354 357 347 347 344 340 336 329 319 320 317 311 309 305 301 300 297 290
331 341 18 126 108 57 7 37 36 30 29 17 11 360 355 356 4 20 21 24 21 17 11 8 8 5 1 356 353 348 345 340 338 332 327 322 320 315 309 304 307 302 294 291 288
312 332 92 144 104 62 21 33 27 27 21 16 8 7 19 35 36 29 22 15 12 13 10 9 4 1 357 350 350 347 340 337 333 333 329 324 322 317 310 299 295 294 290 288 290
312 312 189 145 94 235 18 39 23 22 18 13 12 23 38 32 24 19 16 11 11 10 7 4 0 353 352 348 344 342 341 342 337 333 325 320 310 304 298 292 290 290 289 286 283
289 261 203 151 124 236 358 29 24 22 14 15 24 36 29 25 19 16 10 10 6 5 3 359 355 350 345 342 340 341 343 338 334 330 321 316 313 312 303 299 295 291 288 286 285
265 251 197 176 168 232 331 17 25 22 17 19 30 26 25 20 14 9 8 5 1 0 0 355 349 342 342 343 344 341 337 333 326 326 324 324 318 308 304 301 303 301 302 299 296
253 238 199 201 190 228 297 15 23 22 16 13 16 15 11 4 4 3 2 359 356 357 353 350 343 340 342 340 338 337 334 332 329 331 330 334 336 333 334 332 325 327 325 321 319
249 230 207 216 203 236 306 3 9 17 9 5 358 358 359 1 359 356 355 354 353 352 348 347 342 341 337 337 335 336 336 337 337 339 342 336 335 334 332 328 325 324 319 320 314
244 230 214 224 216 230 289 342 2 11 1 351 341 342 344 349 349 352 353 351 351 349 349 345 341 341 337 334 334 333 336 341 341 341 340 336 334 338 334 328 323 321 323 320 317
241 232 224 227 229 226 274 319 344 355 360 352 341 337 338 338 342 345 350 349 348 352 348 344 345 341 339 334 330 327 333 342 341 340 342 338 335 334 332 332 333 333 333 326 317
242 237 234 232 239 237 251 290 321 336 340 341 331 329 333 338 346 345 349 344 351 350 347 349 346 342 339 336 337 335 337 338 337 341 339 335 329 335 337 337 336 332 328 323 319
243 242 240 235 243 249 254 270 305 320 318 312 321 324 329 334 339 346 343 349 353 346 343 343 343 341 336 340 339 340 341 339 337 338 337 335 335 338 343 341 338 335 329 323 321
241 244 243 239 245 252 262 269 295 315 322 313 319 322 329 336 338 342 344 351 346 343 343 341 344 344 339 339 341 338 338 334 334 335 336 338 336 340 339 340 340 334 327 327 328
241 246 248 243 245 256 269 276 291 309 318 319 320 328 333 331 334 340 343 344 343 343 341 344 346 342 341 339 336 336 337 337 336 338 336 341 342 344 346 343 343 335 330 330 327
241 249 250 245 245 254 266 287 288 299 307 312 321 330 328 331 330 337 340 342 342 343 344 350 348 345 340 339 339 340 339 338 339 342 339 339 344 347 345 344 342 330 332 333 329
238 249 251 243 246 254 266 287 290 292 303 314 324 324 326 328 329 333 338 339 340 345 347 349 348 343 343 343 339 342 343 341 340 340 341 345 347 347 346 343 339 333 335 335 333
237 247 251 246 246 256 265 276 286 288 298 310 318 318 321 323 323 326 334 334 336 342 344 345 346 347 346 342 344 344 345 344 343 343 342 348 349 348 347 344 339 337 339 339 339
239 246 249 246 247 254 262 273 278 282 294 309 309 314 318 321 324 324 325 328 332 340 341 343 346 349 351 348 346 346 344 344 345 348 347 351 351 349 348 345 338 341 342 341 340
242 248 248 245 248 256 261 271 274 281 290 303 306 312 318 322 323 325 326 326 331 338 340 341 345 348 348 348 347 346 346 346 348 347 349 350 355 350 347 344 343 345 345 341 340
242 247 246 242 247 255 261 267 273 282 291 300 304 313 319 322 321 327 326 323 331 336 339 341 343 346 348 349 348 348 347 348 346 349 353 351 356 350 346 343 345 347 343 341 345
243 244 243 243 248 257 263 266 273 282 292 300 305 313 321 320 324 328 330 325 328 334 337 341 344 346 346 347 347 348 348 345 349 353 354 356 356 352 346 346 348 349 346 346 349
241 242 243 245 251 258 263 266 273 284 292 299 308 315 314 318 321 325 326 322 326 331 335 339 343 347 346 345 346 348 348 347 350 353 355 356 0 353 348 350 351 352 347 349 354
242 242 240 246 251 257 264 269 276 285 292 299 307 312 310 313 319 322 323 324 326 329 335 339 343 345 345 344 345 348 348 352 352 354 354 358 359 355 350 351 353 354 348 355 360
Height
10898 10896 10894 10894 10894 10893 10893 10892 10892 10893 10893 10893 10893 10892 10892 10892 10891 10891 10890 10888 10886 10884 10883 10881 10879 10877 10876 10874 10872 10869 10866 10863 10860 10856 10853 10847 10842 10838 10833 10828 10822 10817 10812 10807 10801
10895 10894 10894 10894 10893 10893 10893 10893 10893 10893 10893 10893 10893 10892 10892 10891 10890 10890 10888 10887 10885 10883 10881 10879 10877 10875 10872 10870 10867 10865 10862 10858 10854 10849 10844 10839 10832 10826 10821 10816 10810 10804 10799 10793 10787
10892 10893 10893 10893 10894 10894 10894 10894 10894 10894 10894 10894 10894 10893 10892 10891 10890 10890 10888 10887 10885 10883 10881 10878 10875 10872 10869 10866 10861 10857 10853 10850 10845 10839 10834 10827 10820 10813 10807 10801 10795 10788 10782 10777 10771
10892 10893 10893 10894 10894 10894 10895 10895 10895 10895 10895 10895 10894 10894 10893 10892 10892 10890 10888 10886 10883 10880 10877 10874 10871 10869 10867 10864 10860 10855 10851 10845 10838 10832 10826 10819 10811 10803 10796 10791 10785 10776 10768 10760 10753
10893 10893 10893 10894 10894 10895 10895 10896 10897 10896 10896 10895 10894 10894 10894 10892 10890 10889 10886 10883 10881 10879 10877 10874 10871 10868 10865 10860 10854 10849 10843 10836 10829 10824 10816 10809 10800 10793 10784 10777 10770 10763 10755 10746 10736
10893 10893 10893 10894 10895 10895 10895 10896 10897 10897 10896 10896 10896 10894 10894 10892 10890 10887 10885 10882 10881 10878 10873 10869 10864 10860 10856 10851 10845 10839 10832 10824 10819 10813 10805 10797 10790 10783 10773 10763 10754 10743 10733 10723 10714
10893 10893 10893 10894 10895 10895 10896 10896 10897 10897 10897 10897 10895 10894 10893 10891 10888 10885 10882 10878 10875 10871 10866 10861 10858 10852 10847 10842 10834 10827 10820 10815 10808 10799 10790 10781 10771 10761 10752 10741 10732 10721 10710 10698 10690
10892 10892 10893 10894 10895 10895 10896 10897 10897 10896 10896 10895 10894 10892 10890 10887 10886 10882 10879 10874 10869 10867 10862 10857 10851 10846 10839 10831 10824 10819 10812 10803 10793 10783 10774 10765 10758 10747 10738 10728 10719 10708 10695 10683 10669
10891 10891 10892 10894 10895 10895 10896 10897 10897 10896 10895 10894 10891 10889 10888 10886 10883 10879 10875 10871 10869 10864 10858 10853 10847 10840 10835 10829 10822 10813 10805 10798 10791 10782 10772 10760 10749 10738 10724 10711 10699 10689 10678 10665 10651
10890 10890 10891 10893 10894 10895 10896 10896 10896 10895 10893 10891 10889 10888 10886 10883 10879 10877 10874 10870 10865 10861 10856 10850 10843 10836 10828 10819 10813 10806 10798 10788 10780 10771 10761 10752 10741 10726 10712 10697 10680 10667 10653 10635 10620
10889 10890 10891 10892 10894 10894 10895 10895 10895 10893 10891 10889 10887 10886 10884 10882 10878 10875 10872 10868 10862 10857 10851 10847 10838 10829 10821 10815 10807 10798 10790 10780 10769 10756 10747 10733 10720 10707 10691 10675 10658 10642 10622 10604 10587
10887 10889 10890 10891 10893 10893 10894 10895 10894 10892 10890 10888 10885 10882 10880 10879 10877 10873 10870 10865 10861 10856 10849 10840 10833 10825 10815 10807 10799 10790 10781 10770 10757 10742 10728 10715 10706 10691 10672 10655 10638 10617 10596 10576 10555
10886 10887 10888 10889 10891 10892 10893 10894 10893 10892 10891 10888 10885 10880 10877 10876 10873 10871 10867 10862 10858 10851 10844 10838 10830 10821 10811 10801 10789 10780 10771 10759 10745 10734 10722 10701 10690 10675 10655 10635 10614 10591 10568 10543 10515
10884 10885 10886 10887 10890 10891 10892 10892 10892 10891 10890 10888 10885 10882 10879 10875 10872 10868 10864 10860 10855 10848 10840 10833 10825 10816 10806 10798 10786 10774 10764 10753 10740 10725 10708 10689 10671 10656 10635 10611 10586 10559 10532 10504 10477
10881 10882 10884 10885 10887 10889 10890 10891 10890 10889 10888 10887 10884 10880 10878 10875 10871 10867 10863 10858 10850 10843 10837 10828 10819 10812 10802 10791 10778 10768 10759 10747 10732 10717 10696 10675 10653 10632 10607 10583 10557 10528 10500 10470 10439
10878 10879 10880 10882 10884 10885 10887 10888 10888 10887 10886 10884 10882 10879 10876 10873 10870 10864 10859 10853 10847 10840 10832 10823 10813 10802 10793 10783 10774 10764 10751 10738 10724 10707 10688 10663 10634 10614 10588 10562 10537 10507 10472 10438 10413
10875 10876 10877 10879 10880 10882 10883 10885 10886 10885 10883 10881 10879 10877 10874 10870 10865 10860 10854 10847 10842 10836 10829 10820 10808 10797 10785 10775 10765 10753 10743 10732 10715 10694 10670 10644 10618 10594 10565 10533 10500 10467 10436 10398 10365
10870 10872 10873 10875 10877 10878 10880 10881 10882 10881 10879 10877 10875 10874 10871 10866 10862 10857 10851 10845 10839 10832 10823 10814 10804 10791 10780 10768 10758 10745 10731 10708 10685 10670 10656 10631 10600 10574 10546 10511 10474 10436 10408 10379 10352
10867 10868 10869 10870 10873 10875 10877 10877 10878 10877 10875 10873 10872 10870 10866 10862 10857 10851 10846 10840 10834 10827 10817 10809 10799 10789 10776 10762 10745 10730 10714 10697 10680 10659 10633 10609 10577 10550 10525 10496 10464 10425 10395 10360 10335
10862 10863 10865 10866 10869 10871 10873 10873 10873 10872 10870 10870 10869 10866 10862 10857 10851 10846 10841 10834 10826 10819 10811 10803 10793 10779 10766 10753 10737 10718 10699 10681 10661 10638 10615 10590 10554 10527 10499 10472 10438 10393 10370 10347 10322
10857 10859 10861 10862 10865 10867 10869 10869 10869 10868 10867 10866 10864 10861 10857 10853 10848 10841 10836 10829 10821 10813 10805 10797 10785 10772 10757 10742 10726 10710 10693 10673 10650 10625 10592 10568 10537 10506 10476 10441 10407 10372 10345 10325 10307
10852 10854 10856 10858 10861 10863 10863 10864 10865 10864 10863 10861 10858 10856 10852 10847 10843 10837 10831 10824 10816 10808 10799 10789 10778 10766 10749 10735 10718 10701 10681 10661 10638 10612 10582 10554 10527 10494 10458 10425 10392 10358 10334 10311 10293
10847 10850 10851 10853 10856 10858 10858 10859 10859 10860 10858 10857 10854 10851 10847 10842 10837 10831 10825 10817 10810 10802 10792 10783 10771 10757 10743 10729 10711 10692 10671 10648 10628 10602 10571 10542 10515 10481 10451 10420 10376 10347 10325 10307 10294
10841 10844 10846 10848 10850 10852 10853 10853 10854 10855 10853 10852 10850 10846 10841 10837 10831 10826 10819 10811 10804 10795 10785 10774 10761 10747 10731 10715 10698 10680 10659 10636 10616 10591 10562 10528 10500 10468 10443 10412 10378 10346 10324 10307 10290
10835 10837 10840 10843 10845 10846 10847 10848 10849 10849 10848 10846 10844 10841 10835 10829 10824 10819 10813 10805 10797 10789 10778 10768 10754 10739 10723 10707 10690 10672 10650 10627 10605 10578 10547 10521 10486 10448 10420 10401 10373 10346 10325 10306 10290
10828 10831 10834 10837 10839 10840 10841 10842 10842 10843 10842 10840 10838 10835 10829 10822 10817 10812 10805 10797 10789 10781 10771 10760 10749 10734 10718 10702 10684 10668 10645 10618 10593 10569 10546 10515 10484 10450 10412 10392 10366 10339 10324 10307 10292
10822 10825 10828 10830 10832 10833 10835 10836 10836 10837 10836 10834 10831 10828 10822 10814 10810 10805 10799 10790 10782 10773 10764 10754 10742 10730 10717 10701 10680 10661 10639 10612 10580 10557 10533 10506 10479 10448 10418 10397 10372 10349 10329 10313 10299